Location: Famechon
(49.7599°N, 2.0615°E)
Time: 23:56:49
(UTC+00:00)

Cosmos 2322 - Pass Details

Date: 03 February 2023
Orbit: 841 x 853 km, 71.0° (Epoch: 01 April)

Event Time Altitude Azimuth Distance (km) Brightness Sun altitude
Rises 18:52:51 0° 181° (S) 3,408 6.9 -20.0°
Reaches altitude 10° 18:55:26 10° 173° (S) 2,477 6.1 -20.5°
Enters shadow 18:59:57 36° 124° (ESE) 1,316 4.3 -21.2°
